DW2004 Weather Reports


Display with metric or nautical units.
time (UTC)temp
F
wind
direction
speed
MPH
gust
MPH
rain 1hr
in
rain 24hr
in
rain mn
in
humidity
%
barometer
mb
20260831005505 95 126 0.0 3.0 0.00 0.00 0.00 35 1012.6
20260831005004 96 125 0.0 3.0 0.00 0.00 0.00 35 1012.6
20260831004509 96 121 0.0 2.0 0.00 0.00 0.00 35 1012.6
20260831002504 97 129 0.0 3.0 0.00 0.00 0.00 36 1012.7
20260831002004 97 129 1.0 5.0 0.00 0.00 0.00 35 1012.6
20260831001508 98 86 1.0 5.0 0.00 0.00 0.00 35 1012.6
20260831000504 98 115 1.0 7.0 0.00 0.00 0.00 33 1012.7
20260830235504 99 126 1.0 7.0 0.00 0.00 0.00 33 1012.7
20260830235004 99 108 2.0 8.0 0.00 0.00 0.00 33 1012.7
20260830234507 100 86 0.0 4.0 0.00 0.00 0.00 32 1012.7
20260830234004 100 171 1.0 3.0 0.00 0.00 0.00 32 1012.7
20260830233504 100 175 0.0 3.0 0.00 0.00 0.00 32 1012.7
20260830233007 101 175 0.0 1.0 0.00 0.00 0.00 31 1012.8
20260830232504 101 175 0.0 3.0 0.00 0.00 0.00 28 1012.7
20260830231508 101 175 2.0 7.0 0.00 0.00 0.00 28 1012.8
20260830231004 101 171 0.0 7.0 0.00 0.00 0.00 29 1012.7
20260830230504 101 97 0.0 6.0 0.00 0.00 0.00 30 1012.8
20260830230008 101 78 1.0 5.0 0.00 0.00 0.00 30 1012.9
20260830225503 100 107 0.0 5.0 0.00 0.00 0.00 30 1012.9
20260830225004 101 141 0.0 7.0 0.00 0.00 0.00 30 1013.0
20260830224003 101 113 1.0 8.0 0.00 0.00 0.00 29 1013.0
20260830223503 101 123 1.0 8.0 0.00 0.00 0.00 30 1013.0
20260830223006 100 155 1.0 8.0 0.00 0.00 0.00 31 1013.0
20260830222003 101 122 0.0 6.0 0.00 0.00 0.00 30 1013.0
20260830221508 101 199 1.0 11.0 0.00 0.00 0.00 30 1013.0
20260830220504 99 111 2.0 8.0 0.00 0.00 0.00 32 1012.9
20260830220008 99 106 0.0 7.0 0.00 0.00 0.00 32 1013.0
20260830215505 100 113 1.0 7.0 0.00 0.00 0.00 31 1013.0
20260830215004 101 126 1.0 7.0 0.00 0.00 0.00 30 1013.1
20260830214507 101 129 1.0 9.0 0.00 0.00 0.00 30 1013.1
20260830214003 101 102 1.0 11.0 0.00 0.00 0.00 31 1013.2
20260830213503 100 104 1.0 11.0 0.00 0.00 0.00 32 1013.2
20260830213006 100 113 1.0 7.0 0.00 0.00 0.00 32 1013.2
20260830212003 100 159 1.0 7.0 0.00 0.00 0.00 32 1013.3
20260830211507 100 71 1.0 7.0 0.00 0.00 0.00 33 1013.3
20260830211003 99 87 0.0 4.0 0.00 0.00 0.00 34 1013.4
20260830210009 100 92 3.0 9.0 0.00 0.00 0.00 33 1013.5
20260830205503 100 163 1.0 7.0 0.00 0.00 0.00 32 1013.6
20260830205003 100 160 1.0 7.0 0.00 0.00 0.00 32 1013.6
20260830204507 100 149 1.0 7.0 0.00 0.00 0.00 32 1013.7
20260830204004 102 206 1.0 11.0 0.00 0.00 0.00 31 1013.7
20260830203504 102 185 4.0 11.0 0.00 0.00 0.00 31 1013.8
20260830203008 102 207 2.0 8.0 0.00 0.00 0.00 31 1013.8
20260830202503 102 200 3.0 9.0 0.00 0.00 0.00 30 1013.9
20260830202004 103 192 1.0 9.0 0.00 0.00 0.00 30 1014.1
20260830201507 103 198 2.0 10.0 0.00 0.00 0.00 30 1014.1
20260830201003 103 175 1.0 11.0 0.00 0.00 0.00 31 1014.1
20260830200503 103 146 1.0 11.0 0.00 0.00 0.00 31 1014.2
20260830200009 102 73 1.0 9.0 0.00 0.00 0.00 32 1014.2
20260830195503 102 183 2.0 12.0 0.00 0.00 0.00 32 1014.3
20260830195003 102 215 3.0 12.0 0.00 0.00 0.00 32 1014.3
20260830194003 102 190 4.0 10.0 0.00 0.00 0.00 31 1014.5
20260830193503 101 195 3.0 10.0 0.00 0.00 0.00 33 1014.6
20260830193006 101 148 1.0 9.0 0.00 0.00 0.00 32 1014.6
20260830192503 101 117 1.0 15.0 0.00 0.00 0.00 33 1014.7
20260830192003 101 156 3.0 15.0 0.00 0.00 0.00 34 1014.8
20260830191506 102 191 2.0 9.0 0.00 0.00 0.00 34 1014.8
20260830191003 101 204 0.0 10.0 0.00 0.00 0.00 34 1014.9
20260830190503 101 202 4.0 10.0 0.00 0.00 0.00 34 1014.9
20260830190009 101 138 2.0 12.0 0.00 0.00 0.00 34 1015.0
20260830185503 100 233 3.0 10.0 0.00 0.00 0.00 35 1014.9
20260830185003 100 209 4.0 14.0 0.00 0.00 0.00 35 1015.0
20260830184507 101 160 3.0 11.0 0.00 0.00 0.00 34 1015.1
20260830184003 101 190 1.0 10.0 0.00 0.00 0.00 35 1015.2
20260830183503 100 179 1.0 13.0 0.00 0.00 0.00 35 1015.2
20260830183007 99 175 1.0 13.0 0.00 0.00 0.00 36 1015.4
20260830182503 100 252 4.0 9.0 0.00 0.00 0.00 36 1015.5
20260830181506 99 150 2.0 11.0 0.00 0.00 0.00 36 1015.7
20260830181003 98 144 3.0 8.0 0.00 0.00 0.00 37 1015.7
20260830180504 99 152 3.0 13.0 0.00 0.00 0.00 38 1015.8
20260830180008 98 180 4.0 13.0 0.00 0.00 0.00 39 1015.9
20260830175503 98 150 1.0 14.0 0.00 0.00 0.00 40 1015.9
20260830175002 98 218 4.0 14.0 0.00 0.00 0.00 40 1016.1
20260830174506 97 172 1.0 11.0 0.00 0.00 0.00 40 1016.1
20260830173505 97 115 5.0 18.0 0.00 0.00 0.00 40 1016.3
20260830173013 97 229 6.0 13.0 0.00 0.00 0.00 39 1016.3
20260830172502 98 179 3.0 11.0 0.00 0.00 0.00 40 1016.4
20260830171508 96 185 4.0 11.0 0.00 0.00 0.00 41 1016.4
20260830171002 96 195 3.0 12.0 0.00 0.00 0.00 44 1016.5
20260830170503 96 259 5.0 12.0 0.00 0.00 0.00 43 1016.6
20260830170008 97 194 4.0 10.0 0.00 0.00 0.00 43 1016.7
20260830165502 96 202 1.0 6.0 0.00 0.00 0.00 45 1016.7
20260830165002 96 180 2.0 11.0 0.00 0.00 0.00 45 1016.7
20260830164507 95 180 4.0 11.0 0.00 0.00 0.00 45 1016.7
20260830164002 95 189 3.0 13.0 0.00 0.00 0.00 46 1016.8
20260830163502 95 182 4.0 13.0 0.00 0.00 0.00 46 1016.8
20260830163008 95 186 3.0 10.0 0.00 0.00 0.00 47 1016.8
20260830162003 95 175 4.0 9.0 0.00 0.00 0.00 47 1017.0
20260830161512 95 152 1.0 9.0 0.00 0.00 0.00 48 1017.0
20260830161002 94 203 2.0 9.0 0.00 0.00 0.00 49 1017.0
20260830160502 94 173 2.0 8.0 0.00 0.00 0.00 49 1017.0
20260830160008 94 110 1.0 6.0 0.00 0.00 0.00 49 1017.0
20260830155502 94 186 1.0 7.0 0.00 0.00 0.00 50 1017.0
20260830154506 93 201 2.0 7.0 0.00 0.00 0.00 51 1016.9
20260830154002 93 167 1.0 7.0 0.00 0.00 0.00 50 1017.0
20260830152502 91 188 1.0 8.0 0.00 0.00 0.00 53 1016.9
20260830152002 91 184 2.0 6.0 0.00 0.00 0.00 54 1016.9
20260830151506 91 183 1.0 7.0 0.00 0.00 0.00 54 1017.0
20260830150502 90 232 0.0 8.0 0.00 0.00 0.00 55 1017.0
20260830150007 90 232 1.0 8.0 0.00 0.00 0.00 55 1017.0
20260830145502 89 198 1.0 8.0 0.00 0.00 0.00 55 1017.0
20260830145002 90 190 2.0 8.0 0.00 0.00 0.00 56 1016.9
20260830144506 89 201 1.0 6.0 0.00 0.00 0.00 56 1016.9
20260830144003 89 199 1.0 7.0 0.00 0.00 0.00 57 1016.9
20260830143502 89 199 2.0 7.0 0.00 0.00 0.00 57 1016.9
20260830143006 88 215 2.0 7.0 0.00 0.00 0.00 58 1016.9
20260830142502 88 201 1.0 6.0 0.00 0.00 0.00 59 1016.9
20260830142003 87 225 1.0 6.0 0.00 0.00 0.00 60 1016.9
20260830141002 87 214 1.0 6.0 0.00 0.00 0.00 61 1016.9
20260830140502 86 207 1.0 5.0 0.00 0.00 0.00 61 1017.0
20260830140007 86 206 0.0 6.0 0.00 0.00 0.00 62 1017.0
20260830135502 86 217 0.0 7.0 0.00 0.00 0.00 62 1017.0
20260830134505 86 245 1.0 7.0 0.00 0.00 0.00 62 1017.0
20260830133502 85 155 1.0 6.0 0.00 0.00 0.00 63 1016.8
20260830133006 85 153 0.0 5.0 0.00 0.00 0.00 63 1016.8
20260830132502 85 153 0.0 6.0 0.00 0.00 0.00 64 1016.7
20260830132001 84 150 1.0 6.0 0.00 0.00 0.00 64 1016.9
20260830131506 84 149 0.0 2.0 0.00 0.00 0.00 65 1016.8
20260830131002 84 149 0.0 0.0 0.00 0.00 0.00 65 1016.7
20260830130006 83 149 0.0 0.0 0.00 0.00 0.00 67 1016.5
20260830125501 82 149 0.0 0.0 0.00 0.00 0.00 67 1016.5
20260830125000 82 149 0.0 0.0 0.00 0.00 0.00 68 1016.4
20260830124504 81 149 0.0 0.0 0.00 0.00 0.00 69 1016.3
20260830124001 81 149 0.0 0.0 0.00 0.00 0.00 70 1016.3
20260830123501 80 149 0.0 0.0 0.00 0.00 0.00 70 1016.2
20260830123004 80 149 0.0 0.0 0.00 0.00 0.00 70 1016.2
20260830122501 80 149 0.0 0.0 0.00 0.00 0.00 70 1016.1
20260830122001 80 149 0.0 0.0 0.00 0.00 0.00 70 1016.0
20260830121504 80 149 0.0 0.0 0.00 0.00 0.00 70 1016.0
20260830121002 80 149 0.0 0.0 0.00 0.00 0.00 70 1015.9
20260830120501 79 149 0.0 0.0 0.00 0.00 0.00 70 1015.9
20260830120006 79 149 0.0 0.0 0.00 0.00 0.00 71 1015.8
20260830115501 79 149 0.0 0.0 0.00 0.00 0.00 71 1015.7
20260830114504 79 149 0.0 0.0 0.00 0.00 0.00 70 1015.7
20260830114001 79 149 0.0 0.0 0.00 0.00 0.00 70 1015.6
20260830113501 79 149 0.0 0.0 0.00 0.00 0.00 70 1015.6
20260830113004 80 149 0.0 0.0 0.00 0.00 0.00 69 1015.5
20260830112500 80 149 0.0 0.0 0.00 0.00 0.00 69 1015.5
20260830112001 80 149 0.0 0.0 0.00 0.00 0.00 69 1015.4
20260830111504 80 149 0.0 0.0 0.00 0.00 0.00 69 1015.4
20260830111001 80 149 0.0 0.0 0.00 0.00 0.00 68 1015.3
20260830110500 80 149 0.0 0.0 0.00 0.00 0.00 68 1015.3
20260830110007 80 149 0.0 0.0 0.00 0.00 0.00 68 1015.3
20260830105501 80 149 0.0 0.0 0.00 0.00 0.00 67 1015.4
20260830105001 80 149 0.0 0.0 0.00 0.00 0.00 67 1015.4
20260830104505 80 149 0.0 0.0 0.00 0.00 0.00 66 1015.3
20260830104001 81 149 0.0 0.0 0.00 0.00 0.00 66 1015.2
20260830103501 81 149 0.0 0.0 0.00 0.00 0.00 65 1015.1
20260830103004 81 149 0.0 0.0 0.00 0.00 0.00 64 1015.0
20260830102502 81 149 0.0 0.0 0.00 0.00 0.00 64 1015.0
20260830102001 81 149 0.0 0.0 0.00 0.00 0.00 64 1015.1
20260830100501 82 149 0.0 0.0 0.00 0.00 0.00 62 1015.0
20260830100006 82 149 0.0 0.0 0.00 0.00 0.00 61 1015.0
20260830095000 83 149 0.0 0.0 0.00 0.00 0.00 60 1014.9
20260830094503 83 149 0.0 0.0 0.00 0.00 0.00 60 1014.9
20260830094001 83 149 0.0 0.0 0.00 0.00 0.00 59 1015.0
20260830093501 84 149 0.0 2.0 0.00 0.00 0.00 58 1014.9
20260830093003 84 149 0.0 2.0 0.00 0.00 0.00 58 1015.0
20260830092500 84 149 0.0 2.0 0.00 0.00 0.00 57 1015.1
20260830092000 84 149 0.0 1.0 0.00 0.00 0.00 58 1015.1
20260830091504 84 149 0.0 1.0 0.00 0.00 0.00 57 1015.0
20260830090500 84 126 0.0 2.0 0.00 0.00 0.00 58 1014.9
20260830090006 84 126 0.0 3.0 0.00 0.00 0.00 57 1014.9
20260830085000 85 125 0.0 1.0 0.00 0.00 0.00 57 1014.8
20260830084503 84 126 0.0 2.0 0.00 0.00 0.00 57 1014.9
20260830084001 84 126 0.0 2.0 0.00 0.00 0.00 57 1015.0
20260830083500 84 126 0.0 1.0 0.00 0.00 0.00 58 1015.0
20260830083003 84 125 0.0 1.0 0.00 0.00 0.00 58 1014.9
20260830082500 84 126 0.0 1.0 0.00 0.00 0.00 59 1014.9
20260830082000 85 126 0.0 0.0 0.00 0.00 0.00 59 1014.9
20260830081504 85 126 0.0 2.0 0.00 0.00 0.00 58 1014.8
20260830080501 85 126 0.0 1.0 0.00 0.00 0.00 58 1014.9
20260830080006 85 125 0.0 1.0 0.00 0.00 0.00 58 1015.0
20260830075500 85 125 0.0 1.0 0.00 0.00 0.00 58 1015.0
20260830074503 86 126 0.0 2.0 0.00 0.00 0.00 57 1014.9
20260830074001 86 126 0.0 3.0 0.00 0.00 0.00 55 1014.8
20260830073459 86 125 0.0 3.0 0.00 0.00 0.00 55 1014.9
20260830073004 85 125 0.0 2.0 0.00 0.00 0.00 56 1015.0
20260830072500 85 126 0.0 1.0 0.00 0.00 0.00 56 1015.0
20260830072000 85 125 0.0 1.0 0.00 0.00 0.00 56 1015.0
20260830071504 85 125 0.0 0.0 0.00 0.00 0.00 57 1015.2
20260830071000 85 126 0.0 0.0 0.00 0.00 0.00 57 1015.2
20260830065500 85 125 0.0 2.0 0.00 0.00 0.00 52 1015.0
20260830064503 84 126 0.0 0.0 0.00 0.00 0.00 53 1015.0
20260830064000 84 125 0.0 0.0 0.00 0.00 0.00 53 1014.8
20260830063500 84 126 0.0 0.0 0.00 0.00 0.00 53 1015.0
20260830063003 84 126 0.0 0.0 0.00 0.00 0.00 53 1014.9
20260830062500 84 126 0.0 0.0 0.00 0.00 0.00 53 1015.0
20260830061503 84 125 0.0 0.0 0.00 0.00 0.00 53 1015.0
20260830060500 84 126 0.0 0.0 0.00 0.00 0.00 53 1015.0
20260830060010 84 126 0.0 0.0 0.00 0.00 0.00 52 1015.0
20260830055506 84 125 0.0 0.0 0.00 0.00 0.00 52 1015.1
20260830055005 85 125 0.0 0.0 0.00 0.00 0.00 52 1015.1
20260830054508 85 125 0.0 0.0 0.00 0.00 0.00 52 1015.1
20260830054005 85 126 0.0 0.0 0.00 0.00 0.00 52 1015.0
20260830053504 85 125 0.0 0.0 0.00 0.00 0.00 51 1015.0
20260830053008 85 126 0.0 0.0 0.00 0.00 0.00 51 1015.0
20260830052005 86 126 0.0 0.0 0.00 0.00 0.00 50 1015.1
20260830051509 86 125 0.0 0.0 0.00 0.00 0.00 50 1015.1
20260830051005 86 125 0.0 0.0 0.00 0.00 0.00 50 1015.1
20260830050506 86 126 0.0 0.0 0.00 0.00 0.00 50 1015.0
20260830050014 86 126 0.0 0.0 0.00 0.00 0.00 49 1015.1
20260830045004 86 126 0.0 0.0 0.00 0.00 0.00 49 1015.0
20260830044508 86 126 0.0 0.0 0.00 0.00 0.00 49 1014.9
20260830044005 87 125 0.0 0.0 0.00 0.00 0.00 48 1015.0
20260830043505 87 125 0.0 0.0 0.00 0.00 0.00 48 1015.0
20260830043008 87 126 0.0 0.0 0.00 0.00 0.00 48 1015.0
20260830042505 87 126 0.0 0.0 0.00 0.00 0.00 47 1015.0
20260830042005 87 125 0.0 0.0 0.00 0.00 0.00 47 1015.0
20260830041005 88 126 0.0 0.0 0.00 0.00 0.00 46 1015.0
20260830040505 88 126 0.0 0.0 0.00 0.00 0.00 46 1015.0
20260830040011 88 126 0.0 0.0 0.00 0.00 0.00 46 1014.9
20260830035505 88 126 0.0 0.0 0.00 0.00 0.00 46 1014.9
20260830035004 88 126 0.0 0.0 0.00 0.00 0.00 46 1014.8
20260830034509 88 126 0.0 0.0 0.00 0.00 0.00 46 1014.8
20260830034006 88 125 0.0 0.0 0.00 0.00 0.00 45 1014.8
20260830032504 90 125 0.0 0.0 0.00 0.00 0.00 45 1014.7
20260830032005 90 126 0.0 0.0 0.00 0.00 0.00 44 1014.7
20260830031508 90 126 0.0 0.0 0.00 0.00 0.00 43 1014.6
20260830031005 91 126 0.0 0.0 0.00 0.00 0.00 42 1014.6
20260830030505 91 125 0.0 0.0 0.00 0.00 0.00 42 1014.5
20260830030010 91 125 0.0 0.0 0.00 0.00 0.00 41 1014.4
20260830025504 92 126 0.0 1.0 0.00 0.00 0.00 41 1014.4
20260830025004 92 126 0.0 1.0 0.00 0.00 0.00 40 1014.4
20260830023505 92 126 0.0 2.0 0.00 0.00 0.00 40 1014.3
20260830023008 93 126 0.0 1.0 0.00 0.00 0.00 40 1014.2
20260830022505 93 125 0.0 1.0 0.00 0.00 0.00 39 1014.2
20260830021508 93 126 0.0 3.0 0.00 0.00 0.00 39 1014.0
20260830021005 93 125 0.0 3.0 0.00 0.00 0.00 39 1013.9
20260830020504 93 126 0.0 2.0 0.00 0.00 0.00 39 1013.9
20260830020010 94 126 0.0 3.0 0.00 0.00 0.00 39 1013.9
20260830015505 94 126 0.0 4.0 0.00 0.00 0.00 39 1013.8
20260830015004 94 122 0.0 2.0 0.00 0.00 0.00 39 1013.7
20260830014508 94 122 0.0 2.0 0.00 0.00 0.00 39 1013.7
20260830013505 94 123 0.0 2.0 0.00 0.00 0.00 38 1013.6
20260830013009 94 119 0.0 2.0 0.00 0.00 0.00 38 1013.5
20260830012505 94 119 0.0 2.0 0.00 0.00 0.00 38 1013.5
20260830012005 94 125 0.0 2.0 0.00 0.00 0.00 38 1013.5
20260830011509 95 124 0.0 1.0 0.00 0.00 0.00 37 1013.4
20260830011006 95 123 0.0 3.0 0.00 0.00 0.00 37 1013.4
20260830010504 95 123 0.0 3.0 0.00 0.00 0.00 37 1013.4
20260830010010 95 118 0.0 2.0 0.00 0.00 0.00 37 1013.4